| time (UTC) | temp C | wind direction | speed KPH | gust KPH | rain 1hr cm | rain 24hr cm | rain mn cm | humidity % | barometer mb |
| 20260508153304 | 22 | 225 | 9.7 | 20.9 | 0.00 | 0.00 | 0.00 | 40 | 1008.7 |
| 20260508152804 | 22 | 230 | 14.5 | 20.9 | 0.00 | 0.00 | 0.00 | 40 | 1008.7 |
| 20260508152306 | 22 | 197 | 14.5 | 19.3 | 0.00 | 0.00 | 0.00 | 38 | 1008.8 |
| 20260508151804 | 22 | 191 | 16.1 | 25.7 | 0.00 | 0.00 | 0.00 | 39 | 1009.0 |
| 20260508151304 | 21 | 195 | 14.5 | 25.7 | 0.00 | 0.00 | 0.00 | 39 | 1009.0 |
| 20260508150804 | 22 | 249 | 9.7 | 22.5 | 0.00 | 0.00 | 0.00 | 39 | 1008.8 |
| 20260508145804 | 22 | 202 | 16.1 | 25.7 | 0.00 | 0.00 | 0.00 | 39 | 1009.4 |
| 20260508145306 | 22 | 181 | 12.9 | 20.9 | 0.00 | 0.00 | 0.00 | 39 | 1009.3 |
| 20260508144803 | 21 | 227 | 11.3 | 22.5 | 0.00 | 0.00 | 0.00 | 39 | 1009.5 |
| 20260508144304 | 22 | 247 | 11.3 | 14.5 | 0.00 | 0.00 | 0.00 | 38 | 1009.4 |
| 20260508143804 | 21 | 221 | 8.0 | 19.3 | 0.00 | 0.00 | 0.00 | 39 | 1009.7 |
| 20260508142803 | 22 | 227 | 16.1 | 24.1 | 0.00 | 0.00 | 0.00 | 40 | 1009.9 |
| 20260508142306 | 22 | 200 | 11.3 | 19.3 | 0.00 | 0.00 | 0.00 | 37 | 1009.9 |
| 20260508141304 | 22 | 245 | 14.5 | 16.1 | 0.00 | 0.00 | 0.00 | 38 | 1010.1 |
| 20260508140803 | 21 | 241 | 12.9 | 24.1 | 0.00 | 0.00 | 0.00 | 39 | 1010.1 |
| 20260508140304 | 22 | 203 | 12.9 | 20.9 | 0.00 | 0.00 | 0.00 | 39 | 1010.1 |
| 20260508135804 | 21 | 233 | 4.8 | 11.3 | 0.00 | 0.00 | 0.00 | 40 | 1010.2 |
| 20260508135306 | 21 | 209 | 8.0 | 12.9 | 0.00 | 0.00 | 0.00 | 40 | 1010.3 |
| 20260508134304 | 21 | 217 | 12.9 | 20.9 | 0.00 | 0.00 | 0.00 | 40 | 1010.4 |
| 20260508133804 | 21 | 241 | 9.7 | 14.5 | 0.00 | 0.00 | 0.00 | 41 | 1010.5 |
| 20260508133304 | 21 | 229 | 11.3 | 19.3 | 0.00 | 0.00 | 0.00 | 41 | 1010.4 |
| 20260508132804 | 21 | 251 | 12.9 | 19.3 | 0.00 | 0.00 | 0.00 | 41 | 1010.5 |
| 20260508132306 | 20 | 244 | 14.5 | 20.9 | 0.00 | 0.00 | 0.00 | 42 | 1010.4 |
| 20260508131803 | 21 | 248 | 14.5 | 19.3 | 0.00 | 0.00 | 0.00 | 40 | 1010.6 |
| 20260508131304 | 20 | 308 | 9.7 | 16.1 | 0.00 | 0.00 | 0.00 | 41 | 1010.8 |
| 20260508130803 | 20 | 230 | 8.0 | 14.5 | 0.00 | 0.00 | 0.00 | 42 | 1010.8 |
| 20260508130304 | 20 | 222 | 3.2 | 19.3 | 0.00 | 0.00 | 0.00 | 42 | 1010.9 |
| 20260508125306 | 20 | 239 | 9.7 | 14.5 | 0.00 | 0.00 | 0.00 | 42 | 1011.0 |
| 20260508124304 | 20 | 243 | 12.9 | 20.9 | 0.00 | 0.00 | 0.00 | 43 | 1011.2 |
| 20260508123804 | 20 | 274 | 9.7 | 20.9 | 0.00 | 0.00 | 0.00 | 43 | 1011.1 |
| 20260508122306 | 20 | 162 | 4.8 | 19.3 | 0.00 | 0.00 | 0.00 | 43 | 1011.3 |
| 20260508121804 | 20 | 217 | 16.1 | 20.9 | 0.00 | 0.00 | 0.00 | 43 | 1011.3 |
| 20260508121304 | 20 | 219 | 14.5 | 22.5 | 0.00 | 0.00 | 0.00 | 44 | 1011.4 |
| 20260508120803 | 20 | 283 | 11.3 | 19.3 | 0.00 | 0.00 | 0.00 | 45 | 1011.4 |
| 20260508120304 | 20 | 222 | 16.1 | 25.7 | 0.00 | 0.00 | 0.00 | 44 | 1011.5 |
| 20260508115805 | 19 | 182 | 3.2 | 16.1 | 0.00 | 0.00 | 0.00 | 46 | 1011.6 |
| 20260508115306 | 20 | 200 | 16.1 | 22.5 | 0.00 | 0.00 | 0.00 | 45 | 1011.7 |
| 20260508114804 | 19 | 180 | 9.7 | 12.9 | 0.00 | 0.00 | 0.00 | 46 | 1011.6 |
| 20260508114304 | 19 | 212 | 9.7 | 16.1 | 0.00 | 0.00 | 0.00 | 46 | 1011.7 |
| 20260508113804 | 20 | 253 | 14.5 | 22.5 | 0.00 | 0.00 | 0.00 | 46 | 1011.5 |
| 20260508113304 | 19 | 205 | 16.1 | 20.9 | 0.00 | 0.00 | 0.00 | 47 | 1011.6 |
| 20260508112805 | 19 | 254 | 8.0 | 20.9 | 0.00 | 0.00 | 0.00 | 46 | 1011.7 |
| 20260508112307 | 20 | 149 | 9.7 | 16.1 | 0.00 | 0.00 | 0.00 | 45 | 1011.7 |
| 20260508111804 | 19 | 186 | 8.0 | 14.5 | 0.00 | 0.00 | 0.00 | 45 | 1011.6 |
| 20260508111304 | 19 | 239 | 11.3 | 22.5 | 0.00 | 0.00 | 0.00 | 46 | 1011.6 |
| 20260508110805 | 18 | 270 | 14.5 | 16.1 | 0.00 | 0.00 | 0.00 | 46 | 1011.6 |
| 20260508105805 | 20 | 286 | 11.3 | 19.3 | 0.00 | 0.00 | 0.00 | 44 | 1011.8 |
| 20260508105306 | 20 | 210 | 16.1 | 22.5 | 0.00 | 0.00 | 0.00 | 45 | 1011.7 |
| 20260508104804 | 19 | 212 | 14.5 | 24.1 | 0.00 | 0.00 | 0.00 | 46 | 1011.6 |
| 20260508104305 | 18 | 192 | 11.3 | 20.9 | 0.00 | 0.00 | 0.00 | 46 | 1011.8 |
| 20260508103804 | 20 | 271 | 11.3 | 16.1 | 0.00 | 0.00 | 0.00 | 46 | 1011.8 |
| 20260508103304 | 18 | 267 | 4.8 | 16.1 | 0.00 | 0.00 | 0.00 | 46 | 1012.0 |
| 20260508102804 | 18 | 259 | 8.0 | 16.1 | 0.00 | 0.00 | 0.00 | 47 | 1011.8 |
| 20260508102306 | 19 | 210 | 12.9 | 20.9 | 0.00 | 0.00 | 0.00 | 46 | 1011.9 |
| 20260508101304 | 18 | 268 | 8.0 | 20.9 | 0.00 | 0.00 | 0.00 | 48 | 1012.0 |
| 20260508100805 | 18 | 263 | 11.3 | 20.9 | 0.00 | 0.00 | 0.00 | 47 | 1012.1 |
| 20260508100304 | 19 | 210 | 12.9 | 20.9 | 0.00 | 0.00 | 0.00 | 47 | 1011.9 |
| 20260508095804 | 18 | 194 | 4.8 | 11.3 | 0.00 | 0.00 | 0.00 | 50 | 1012.1 |
| 20260508095306 | 17 | 278 | 8.0 | 22.5 | 0.00 | 0.00 | 0.00 | 50 | 1012.2 |
| 20260508094805 | 18 | 220 | 14.5 | 22.5 | 0.00 | 0.00 | 0.00 | 49 | 1012.2 |
| 20260508094304 | 18 | 187 | 14.5 | 20.9 | 0.00 | 0.00 | 0.00 | 51 | 1012.1 |
| 20260508093804 | 17 | 269 | 9.7 | 16.1 | 0.00 | 0.00 | 0.00 | 49 | 1012.3 |
| 20260508093304 | 17 | 245 | 16.1 | 24.1 | 0.00 | 0.00 | 0.00 | 50 | 1012.3 |
| 20260508092312 | 18 | 212 | 16.1 | 20.9 | 0.00 | 0.00 | 0.00 | 52 | 1012.6 |
| 20260508091304 | 17 | 204 | 19.3 | 24.1 | 0.00 | 0.00 | 0.00 | 57 | 1012.4 |
| 20260508090804 | 17 | 199 | 9.7 | 20.9 | 0.00 | 0.00 | 0.00 | 57 | 1012.4 |
| 20260508090305 | 17 | 200 | 14.5 | 24.1 | 0.00 | 0.00 | 0.00 | 57 | 1012.5 |
| 20260508085804 | 17 | 198 | 16.1 | 20.9 | 0.00 | 0.00 | 0.00 | 57 | 1012.5 |
| 20260508085306 | 17 | 198 | 16.1 | 22.5 | 0.00 | 0.00 | 0.00 | 58 | 1012.3 |
| 20260508084804 | 17 | 199 | 11.3 | 22.5 | 0.00 | 0.00 | 0.00 | 60 | 1012.3 |
| 20260508083804 | 16 | 229 | 11.3 | 24.1 | 0.00 | 0.00 | 0.00 | 64 | 1012.4 |
| 20260508083304 | 16 | 237 | 20.9 | 25.7 | 0.00 | 0.00 | 0.00 | 63 | 1012.4 |
| 20260508082805 | 16 | 222 | 11.3 | 22.5 | 0.00 | 0.00 | 0.00 | 63 | 1012.3 |
| 20260508082306 | 16 | 247 | 16.1 | 22.5 | 0.00 | 0.00 | 0.00 | 63 | 1012.4 |
| 20260508081804 | 17 | 248 | 11.3 | 20.9 | 0.00 | 0.00 | 0.00 | 64 | 1012.5 |
| 20260508081304 | 16 | 241 | 14.5 | 22.5 | 0.00 | 0.00 | 0.00 | 64 | 1012.4 |
| 20260508080804 | 16 | 212 | 14.5 | 19.3 | 0.00 | 0.00 | 0.00 | 66 | 1012.3 |
| 20260508080304 | 16 | 224 | 11.3 | 16.1 | 0.00 | 0.00 | 0.00 | 67 | 1012.3 |
| 20260508074804 | 15 | 226 | 8.0 | 12.9 | 0.00 | 0.00 | 0.00 | 71 | 1012.2 |
| 20260508074304 | 15 | 191 | 6.4 | 9.7 | 0.00 | 0.00 | 0.00 | 71 | 1012.0 |
| 20260508073804 | 15 | 221 | 8.0 | 11.3 | 0.00 | 0.00 | 0.00 | 72 | 1012.0 |
| 20260508073304 | 15 | 230 | 6.4 | 9.7 | 0.00 | 0.00 | 0.00 | 72 | 1011.9 |
| 20260508072804 | 15 | 216 | 6.4 | 9.7 | 0.00 | 0.00 | 0.00 | 72 | 1011.8 |
| 20260508072307 | 15 | 178 | 3.2 | 8.0 | 0.00 | 0.00 | 0.00 | 72 | 1011.9 |
| 20260508071304 | 14 | 209 | 3.2 | 8.0 | 0.00 | 0.00 | 0.00 | 73 | 1011.8 |
| 20260508070803 | 14 | 167 | 4.8 | 9.7 | 0.00 | 0.00 | 0.00 | 73 | 1011.8 |
| 20260508070304 | 14 | 119 | 4.8 | 11.3 | 0.00 | 0.00 | 0.00 | 74 | 1011.7 |
| 20260508065804 | 14 | 184 | 8.0 | 9.7 | 0.00 | 0.00 | 0.00 | 73 | 1011.8 |
| 20260508065306 | 14 | 182 | 4.8 | 9.7 | 0.00 | 0.00 | 0.00 | 74 | 1011.7 |
| 20260508064804 | 14 | 267 | 3.2 | 8.0 | 0.00 | 0.00 | 0.00 | 74 | 1011.7 |
| 20260508064305 | 14 | 179 | 3.2 | 8.0 | 0.00 | 0.00 | 0.00 | 74 | 1011.6 |
| 20260508063804 | 14 | 214 | 6.4 | 9.7 | 0.00 | 0.00 | 0.00 | 74 | 1011.6 |
| 20260508062804 | 14 | 178 | 8.0 | 14.5 | 0.00 | 0.00 | 0.00 | 75 | 1011.7 |
| 20260508062306 | 13 | 189 | 6.4 | 11.3 | 0.00 | 0.00 | 0.00 | 76 | 1011.7 |
| 20260508061804 | 13 | 216 | 8.0 | 9.7 | 0.00 | 0.00 | 0.00 | 76 | 1011.7 |
| 20260508061303 | 13 | 247 | 4.8 | 8.0 | 0.00 | 0.00 | 0.00 | 76 | 1011.6 |
| 20260508060804 | 13 | 234 | 4.8 | 8.0 | 0.00 | 0.00 | 0.00 | 76 | 1011.4 |
| 20260508055306 | 13 | 258 | 3.2 | 3.2 | 0.00 | 0.00 | 0.00 | 78 | 1011.4 |
| 20260508054804 | 13 | 175 | 3.2 | 4.8 | 0.00 | 0.00 | 0.00 | 79 | 1011.4 |
| 20260508054304 | 13 | 202 | 4.8 | 4.8 | 0.00 | 0.00 | 0.00 | 79 | 1011.4 |
| 20260508053803 | 13 | 233 | 3.2 | 8.0 | 0.00 | 0.00 | 0.00 | 79 | 1011.4 |
| 20260508053304 | 13 | 231 | 4.8 | 9.7 | 0.00 | 0.00 | 0.00 | 78 | 1011.5 |
| 20260508052306 | 13 | 192 | 4.8 | 11.3 | 0.00 | 0.00 | 0.00 | 78 | 1011.0 |
| 20260508050804 | 13 | 221 | 1.6 | 4.8 | 0.00 | 0.00 | 0.00 | 78 | 1010.9 |
| 20260508050305 | 13 | 191 | 3.2 | 9.7 | 0.00 | 0.00 | 0.00 | 78 | 1010.7 |
| 20260508045804 | 13 | 215 | 6.4 | 9.7 | 0.00 | 0.00 | 0.00 | 78 | 1010.7 |
| 20260508045307 | 13 | 217 | 4.8 | 8.0 | 0.00 | 0.00 | 0.00 | 78 | 1010.7 |
| 20260508044804 | 13 | 243 | 4.8 | 9.7 | 0.00 | 0.00 | 0.00 | 77 | 1010.7 |
| 20260508044304 | 13 | 211 | 9.7 | 12.9 | 0.00 | 0.00 | 0.00 | 76 | 1010.8 |
| 20260508043804 | 13 | 207 | 8.0 | 11.3 | 0.00 | 0.00 | 0.00 | 76 | 1010.5 |
| 20260508043304 | 13 | 202 | 4.8 | 9.7 | 0.00 | 0.00 | 0.00 | 75 | 1010.4 |
| 20260508042805 | 13 | 205 | 4.8 | 8.0 | 0.00 | 0.00 | 0.00 | 75 | 1010.4 |
| 20260508042307 | 13 | 192 | 4.8 | 11.3 | 0.00 | 0.00 | 0.00 | 76 | 1010.2 |
| 20260508041804 | 13 | 175 | 4.8 | 4.8 | 0.00 | 0.00 | 0.00 | 76 | 1010.1 |
| 20260508040804 | 13 | 210 | 4.8 | 8.0 | 0.00 | 0.00 | 0.00 | 76 | 1010.4 |
| 20260508040304 | 13 | 174 | 4.8 | 9.7 | 0.00 | 0.00 | 0.00 | 76 | 1010.5 |
| 20260508035306 | 13 | 191 | 6.4 | 9.7 | 0.00 | 0.00 | 0.00 | 77 | 1010.4 |
| 20260508034804 | 13 | 198 | 8.0 | 9.7 | 0.00 | 0.00 | 0.00 | 76 | 1010.5 |
| 20260508034304 | 13 | 199 | 8.0 | 11.3 | 0.00 | 0.00 | 0.00 | 76 | 1010.4 |
| 20260508033804 | 13 | 173 | 6.4 | 11.3 | 0.00 | 0.00 | 0.00 | 76 | 1010.4 |
| 20260508032306 | 13 | 165 | 4.8 | 9.7 | 0.00 | 0.00 | 0.00 | 75 | 1010.4 |
| 20260508031304 | 13 | 147 | 3.2 | 8.0 | 0.00 | 0.00 | 0.00 | 75 | 1010.4 |
| 20260508030804 | 13 | 154 | 4.8 | 11.3 | 0.00 | 0.00 | 0.00 | 75 | 1010.5 |
| 20260508030304 | 13 | 186 | 4.8 | 8.0 | 0.00 | 0.00 | 0.00 | 75 | 1010.7 |
| 20260508025306 | 13 | 179 | 4.8 | 9.7 | 0.00 | 0.00 | 0.00 | 74 | 1010.8 |
| 20260508024804 | 13 | 180 | 6.4 | 9.7 | 0.00 | 0.00 | 0.00 | 75 | 1010.7 |
| 20260508024304 | 13 | 182 | 4.8 | 9.7 | 0.00 | 0.00 | 0.00 | 75 | 1010.8 |
| 20260508023804 | 14 | 184 | 6.4 | 8.0 | 0.00 | 0.00 | 0.00 | 74 | 1010.7 |
| 20260508023304 | 14 | 181 | 4.8 | 12.9 | 0.00 | 0.00 | 0.00 | 74 | 1010.7 |
| 20260508022804 | 14 | 185 | 8.0 | 12.9 | 0.00 | 0.00 | 0.00 | 74 | 1010.9 |
| 20260508022307 | 14 | 182 | 6.4 | 11.3 | 0.00 | 0.00 | 0.00 | 74 | 1010.7 |
| 20260508021804 | 14 | 188 | 6.4 | 9.7 | 0.00 | 0.00 | 0.00 | 74 | 1010.8 |
| 20260508020804 | 14 | 185 | 4.8 | 4.8 | 0.00 | 0.00 | 0.00 | 74 | 1010.7 |
| 20260508020304 | 14 | 167 | 4.8 | 9.7 | 0.00 | 0.00 | 0.00 | 74 | 1010.9 |
| 20260508015804 | 14 | 184 | 4.8 | 9.7 | 0.00 | 0.00 | 0.00 | 74 | 1010.7 |
| 20260508015306 | 14 | 169 | 1.6 | 8.0 | 0.00 | 0.00 | 0.00 | 74 | 1010.8 |
| 20260508014804 | 14 | 213 | 6.4 | 8.0 | 0.00 | 0.00 | 0.00 | 74 | 1010.8 |
| 20260508014303 | 14 | 215 | 4.8 | 9.7 | 0.00 | 0.00 | 0.00 | 75 | 1010.8 |
| 20260508013804 | 14 | 218 | 6.4 | 9.7 | 0.00 | 0.00 | 0.00 | 75 | 1010.9 |
| 20260508013304 | 14 | 207 | 6.4 | 8.0 | 0.00 | 0.00 | 0.00 | 74 | 1011.1 |
| 20260508012804 | 14 | 202 | 4.8 | 9.7 | 0.00 | 0.00 | 0.00 | 74 | 1011.1 |
| 20260508012307 | 14 | 217 | 6.4 | 9.7 | 0.00 | 0.00 | 0.00 | 74 | 1011.2 |
| 20260508011804 | 14 | 189 | 4.8 | 9.7 | 0.00 | 0.00 | 0.00 | 74 | 1010.9 |
| 20260508011304 | 14 | 206 | 4.8 | 9.7 | 0.00 | 0.00 | 0.00 | 74 | 1011.3 |
| 20260508010804 | 14 | 193 | 6.4 | 8.0 | 0.00 | 0.00 | 0.00 | 74 | 1011.3 |
| 20260508005804 | 14 | 200 | 4.8 | 9.7 | 0.00 | 0.00 | 0.00 | 75 | 1011.1 |
| 20260508005306 | 14 | 216 | 6.4 | 9.7 | 0.00 | 0.00 | 0.00 | 75 | 1011.0 |
| 20260508004804 | 14 | 210 | 4.8 | 9.7 | 0.00 | 0.00 | 0.00 | 76 | 1011.3 |
| 20260508004303 | 14 | 205 | 4.8 | 9.7 | 0.00 | 0.00 | 0.00 | 76 | 1011.4 |
| 20260508003304 | 14 | 247 | 4.8 | 9.7 | 0.00 | 0.00 | 0.00 | 76 | 1011.3 |
| 20260508002804 | 14 | 234 | 4.8 | 8.0 | 0.00 | 0.00 | 0.00 | 75 | 1011.2 |
| 20260508002306 | 15 | 202 | 6.4 | 9.7 | 0.00 | 0.00 | 0.00 | 74 | 1011.2 |
| 20260508001804 | 15 | 192 | 8.0 | 11.3 | 0.00 | 0.00 | 0.00 | 74 | 1011.1 |
| 20260508000804 | 15 | 185 | 8.0 | 9.7 | 0.00 | 0.00 | 0.00 | 74 | 1011.2 |
| 20260508000305 | 15 | 196 | 6.4 | 11.3 | 0.00 | 0.00 | 0.00 | 73 | 1011.0 |
| 20260507235804 | 15 | 210 | 6.4 | 8.0 | 0.00 | 0.00 | 0.00 | 73 | 1011.2 |
| 20260507235306 | 15 | 197 | 6.4 | 9.7 | 0.00 | 0.00 | 0.00 | 73 | 1011.4 |
| 20260507234804 | 15 | 205 | 9.7 | 11.3 | 0.00 | 0.00 | 0.00 | 72 | 1011.6 |
| 20260507234304 | 15 | 188 | 8.0 | 11.3 | 0.00 | 0.00 | 0.00 | 72 | 1011.4 |
| 20260507233804 | 15 | 210 | 9.7 | 11.3 | 0.00 | 0.00 | 0.00 | 71 | 1011.4 |
| 20260507233304 | 15 | 197 | 8.0 | 9.7 | 0.00 | 0.00 | 0.00 | 71 | 1011.3 |
| 20260507232804 | 15 | 184 | 4.8 | 9.7 | 0.00 | 0.00 | 0.00 | 71 | 1011.1 |
| 20260507232306 | 15 | 183 | 6.4 | 9.7 | 0.00 | 0.00 | 0.00 | 71 | 1011.3 |
| 20260507231804 | 15 | 207 | 4.8 | 8.0 | 0.00 | 0.00 | 0.00 | 71 | 1011.3 |
| 20260507230804 | 15 | 182 | 4.8 | 9.7 | 0.00 | 0.00 | 0.00 | 72 | 1011.3 |
| 20260507230304 | 15 | 199 | 8.0 | 11.3 | 0.00 | 0.00 | 0.00 | 72 | 1011.5 |
| 20260507224804 | 15 | 197 | 4.8 | 8.0 | 0.00 | 0.00 | 0.00 | 72 | 1011.5 |
| 20260507224304 | 15 | 199 | 8.0 | 11.3 | 0.00 | 0.00 | 0.00 | 72 | 1011.8 |
| 20260507223304 | 15 | 202 | 8.0 | 9.7 | 0.00 | 0.00 | 0.00 | 72 | 1011.9 |
| 20260507222306 | 15 | 201 | 8.0 | 11.3 | 0.00 | 0.00 | 0.00 | 71 | 1012.0 |
| 20260507221804 | 15 | 199 | 6.4 | 9.7 | 0.00 | 0.00 | 0.00 | 70 | 1011.8 |
| 20260507221304 | 15 | 191 | 6.4 | 9.7 | 0.00 | 0.00 | 0.00 | 70 | 1012.0 |
| 20260507220804 | 15 | 195 | 6.4 | 9.7 | 0.00 | 0.00 | 0.00 | 70 | 1012.0 |
| 20260507220304 | 15 | 191 | 8.0 | 9.7 | 0.00 | 0.00 | 0.00 | 70 | 1011.9 |
| 20260507215804 | 15 | 183 | 8.0 | 9.7 | 0.00 | 0.00 | 0.00 | 70 | 1011.8 |
| 20260507215306 | 15 | 195 | 8.0 | 11.3 | 0.00 | 0.00 | 0.00 | 69 | 1011.8 |
| 20260507214804 | 15 | 192 | 8.0 | 8.0 | 0.00 | 0.00 | 0.00 | 68 | 1012.0 |
| 20260507213804 | 15 | 234 | 3.2 | 9.7 | 0.00 | 0.00 | 0.00 | 67 | 1011.6 |
| 20260507213304 | 15 | 238 | 4.8 | 9.7 | 0.00 | 0.00 | 0.00 | 66 | 1011.9 |
| 20260507212804 | 15 | 239 | 4.8 | 9.7 | 0.00 | 0.00 | 0.00 | 65 | 1011.9 |
| 20260507211804 | 15 | 241 | 6.4 | 8.0 | 0.00 | 0.00 | 0.00 | 64 | 1011.8 |
| 20260507210804 | 15 | 255 | 6.4 | 9.7 | 0.00 | 0.00 | 0.00 | 63 | 1011.8 |
| 20260507210304 | 15 | 242 | 8.0 | 9.7 | 0.00 | 0.00 | 0.00 | 63 | 1011.5 |
| 20260507204304 | 16 | 266 | 8.0 | 11.3 | 0.00 | 0.00 | 0.00 | 61 | 1011.3 |
| 20260507203804 | 16 | 264 | 8.0 | 12.9 | 0.00 | 0.00 | 0.00 | 60 | 1011.2 |
| 20260507203304 | 16 | 281 | 9.7 | 14.5 | 0.00 | 0.00 | 0.00 | 60 | 1011.1 |
| 20260507202804 | 16 | 273 | 8.0 | 11.3 | 0.00 | 0.00 | 0.00 | 60 | 1011.1 |
| 20260507202306 | 16 | 255 | 9.7 | 14.5 | 0.00 | 0.00 | 0.00 | 60 | 1011.2 |
| 20260507201803 | 16 | 266 | 9.7 | 14.5 | 0.00 | 0.00 | 0.00 | 59 | 1011.2 |
| 20260507201304 | 16 | 277 | 12.9 | 19.3 | 0.00 | 0.00 | 0.00 | 59 | 1011.2 |
| 20260507200805 | 16 | 272 | 12.9 | 19.3 | 0.00 | 0.00 | 0.00 | 59 | 1011.4 |
| 20260507200303 | 16 | 259 | 11.3 | 16.1 | 0.00 | 0.00 | 0.00 | 59 | 1011.2 |
| 20260507195804 | 16 | 255 | 11.3 | 16.1 | 0.00 | 0.00 | 0.00 | 59 | 1011.2 |
| 20260507195306 | 16 | 262 | 11.3 | 14.5 | 0.00 | 0.00 | 0.00 | 59 | 1011.2 |
| 20260507194804 | 16 | 252 | 8.0 | 12.9 | 0.00 | 0.00 | 0.00 | 59 | 1011.1 |
| 20260507194303 | 16 | 253 | 8.0 | 12.9 | 0.00 | 0.00 | 0.00 | 59 | 1011.2 |
| 20260507193804 | 17 | 234 | 9.7 | 16.1 | 0.00 | 0.00 | 0.00 | 59 | 1011.0 |
| 20260507193304 | 17 | 244 | 11.3 | 19.3 | 0.00 | 0.00 | 0.00 | 59 | 1011.0 |
| 20260507192803 | 17 | 259 | 11.3 | 19.3 | 0.00 | 0.00 | 0.00 | 59 | 1010.7 |
| 20260507191304 | 17 | 247 | 11.3 | 22.5 | 0.00 | 0.00 | 0.00 | 58 | 1010.8 |
| 20260507190803 | 17 | 241 | 12.9 | 24.1 | 0.00 | 0.00 | 0.00 | 57 | 1010.7 |
| 20260507190304 | 17 | 244 | 19.3 | 25.7 | 0.00 | 0.00 | 0.00 | 56 | 1010.7 |
| 20260507185804 | 17 | 248 | 16.1 | 22.5 | 0.00 | 0.00 | 0.00 | 55 | 1010.8 |
| 20260507184804 | 18 | 240 | 16.1 | 27.4 | 0.00 | 0.00 | 0.00 | 55 | 1010.6 |
| 20260507184304 | 18 | 236 | 14.5 | 22.5 | 0.00 | 0.00 | 0.00 | 53 | 1010.3 |
| 20260507183304 | 18 | 244 | 20.9 | 27.4 | 0.00 | 0.00 | 0.00 | 52 | 1010.4 |
| 20260507182804 | 18 | 241 | 19.3 | 32.2 | 0.00 | 0.00 | 0.00 | 52 | 1010.3 |
| 20260507182306 | 18 | 230 | 14.5 | 29.0 | 0.00 | 0.00 | 0.00 | 52 | 1010.1 |
| 20260507181803 | 18 | 241 | 16.1 | 25.7 | 0.00 | 0.00 | 0.00 | 51 | 1010.1 |
| 20260507181304 | 18 | 237 | 19.3 | 27.4 | 0.00 | 0.00 | 0.00 | 51 | 1010.0 |
| 20260507180804 | 19 | 234 | 20.9 | 29.0 | 0.00 | 0.00 | 0.00 | 51 | 1009.8 |
| 20260507175804 | 20 | 240 | 14.5 | 27.4 | 0.00 | 0.00 | 0.00 | 50 | 1010.0 |
| 20260507175307 | 20 | 239 | 17.7 | 27.4 | 0.00 | 0.00 | 0.00 | 50 | 1009.8 |
| 20260507174304 | 20 | 228 | 20.9 | 25.7 | 0.00 | 0.00 | 0.00 | 50 | 1009.8 |
| 20260507173804 | 20 | 220 | 19.3 | 27.4 | 0.00 | 0.00 | 0.00 | 49 | 1009.6 |
| 20260507173303 | 20 | 245 | 20.9 | 27.4 | 0.00 | 0.00 | 0.00 | 48 | 1009.6 |
| 20260507172804 | 20 | 219 | 19.3 | 32.2 | 0.00 | 0.00 | 0.00 | 49 | 1009.5 |
| 20260507172307 | 20 | 234 | 16.1 | 25.7 | 0.00 | 0.00 | 0.00 | 48 | 1009.5 |
| 20260507171304 | 20 | 236 | 22.5 | 33.8 | 0.00 | 0.00 | 0.00 | 47 | 1009.6 |
| 20260507165804 | 20 | 215 | 22.5 | 32.2 | 0.00 | 0.00 | 0.00 | 46 | 1009.5 |
| 20260507165306 | 21 | 242 | 17.7 | 27.4 | 0.00 | 0.00 | 0.00 | 45 | 1009.3 |
| 20260507164804 | 20 | 244 | 20.9 | 29.0 | 0.00 | 0.00 | 0.00 | 45 | 1009.3 |
| 20260507164304 | 21 | 231 | 19.3 | 27.4 | 0.00 | 0.00 | 0.00 | 45 | 1009.3 |
| 20260507163304 | 21 | 256 | 17.7 | 33.8 | 0.00 | 0.00 | 0.00 | 43 | 1009.2 |
| 20260507162804 | 21 | 218 | 14.5 | 27.4 | 0.00 | 0.00 | 0.00 | 43 | 1009.0 |
| 20260507162307 | 21 | 225 | 20.9 | 27.4 | 0.00 | 0.00 | 0.00 | 43 | 1009.0 |
| 20260507161305 | 21 | 208 | 16.1 | 29.0 | 0.00 | 0.00 | 0.00 | 43 | 1009.0 |
| 20260507160804 | 21 | 202 | 19.3 | 25.7 | 0.00 | 0.00 | 0.00 | 42 | 1009.1 |
| 20260507160304 | 21 | 245 | 19.3 | 25.7 | 0.00 | 0.00 | 0.00 | 41 | 1009.1 |
| 20260507155804 | 21 | 240 | 16.1 | 25.7 | 0.00 | 0.00 | 0.00 | 42 | 1009.2 |
| 20260507155306 | 21 | 232 | 22.5 | 33.8 | 0.00 | 0.00 | 0.00 | 44 | 1009.1 |
| 20260507154804 | 21 | 215 | 20.9 | 27.4 | 0.00 | 0.00 | 0.00 | 43 | 1009.1 |
| 20260507154305 | 21 | 236 | 25.7 | 37.0 | 0.00 | 0.00 | 0.00 | 42 | 1009.1 |